RYR88TG GMMW-GMFO

Flight info

Callsign RYR88TG
Flight time 0h 18m
Altitude 11000
Route VABSI
Aircraft B738/M-SDE2E3FGHIRWXY/LB1

Departure

Time 2026-04-15 11:16
Airport Nador Al Aaroui International Airport (GMMW)

Arrival

Time 2026-04-15 11:34
Airport Oujda Angads Airport (GMFO)
Time Latitude Longitude Altitude Speed Heading
2026-04-15 11:09 34.99239 -3.02917 591 ft 0 kts 155°
2026-04-15 11:14 34.99203 -3.02914 591 ft 16 kts 188°
2026-04-15 11:14 34.99033 -3.02917 591 ft 26 kts 174°
2026-04-15 11:14 34.98897 -3.02999 591 ft 24 kts 250°
2026-04-15 11:14 34.98810 -3.03460 596 ft 94 kts 257°
2026-04-15 11:15 34.98693 -3.04159 600 ft 59 kts 264°
2026-04-15 11:15 34.98691 -3.04375 601 ft 8 kts 182°
2026-04-15 11:15 34.98659 -3.04332 601 ft 6 kts 93°
2026-04-15 11:15 34.98700 -3.04092 600 ft 64 kts 78°
2026-04-15 11:16 34.98846 -3.03254 596 ft 133 kts 78°
2026-04-15 11:16 34.99072 -3.01946 727 ft 174 kts 78°
2026-04-15 11:16 34.99285 -3.00532 1558 ft 170 kts 82°
2026-04-15 11:16 34.99134 -2.99122 2341 ft 172 kts 107°
2026-04-15 11:17 34.98811 -2.97731 3139 ft 170 kts 106°
2026-04-15 11:17 34.98496 -2.96326 3915 ft 173 kts 106°
2026-04-15 11:17 34.98158 -2.94809 4317 ft 201 kts 105°
2026-04-15 11:17 34.97768 -2.93063 4518 ft 228 kts 105°
2026-04-15 11:18 34.97328 -2.91099 5248 ft 244 kts 105°
2026-04-15 11:18 34.96863 -2.89030 5891 ft 262 kts 105°
2026-04-15 11:18 34.96375 -2.86853 6633 ft 270 kts 104°
2026-04-15 11:18 34.95871 -2.84606 7324 ft 278 kts 104°
2026-04-15 11:19 34.95356 -2.82317 8082 ft 283 kts 103°
2026-04-15 11:19 34.94831 -2.79994 8881 ft 286 kts 103°
2026-04-15 11:19 34.94298 -2.77634 9638 ft 292 kts 102°
2026-04-15 11:19 34.93755 -2.75228 10377 ft 296 kts 102°
2026-04-15 11:20 34.93202 -2.72775 10700 ft 317 kts 102°
2026-04-15 11:20 34.92597 -2.70092 10873 ft 340 kts 102°
2026-04-15 11:20 34.91948 -2.67221 11056 ft 361 kts 102°
2026-04-15 11:20 34.91265 -2.64218 11200 ft 371 kts 103°
2026-04-15 11:21 34.90560 -2.61123 11232 ft 389 kts 103°
2026-04-15 11:21 34.89846 -2.57898 11227 ft 396 kts 102°
2026-04-15 11:21 34.89191 -2.54622 11237 ft 399 kts 101°
2026-04-15 11:21 34.88562 -2.51360 11223 ft 387 kts 101°
2026-04-15 11:22 34.87960 -2.48242 11232 ft 371 kts 101°
2026-04-15 11:22 34.87372 -2.45213 11227 ft 366 kts 101°
2026-04-15 11:22 34.86783 -2.42201 11249 ft 365 kts 101°
2026-04-15 11:22 34.86190 -2.39191 11157 ft 364 kts 101°
2026-04-15 11:23 34.85604 -2.36235 11019 ft 353 kts 101°
2026-04-15 11:23 34.85041 -2.33407 10858 ft 341 kts 101°
2026-04-15 11:23 34.84493 -2.30663 10765 ft 329 kts 101°
2026-04-15 11:23 34.83650 -2.28101 10624 ft 326 kts 120°
2026-04-15 11:24 34.82189 -2.26016 10494 ft 320 kts 132°
2026-04-15 11:24 34.80628 -2.24128 10374 ft 312 kts 133°
2026-04-15 11:24 34.79610 -2.22914 10287 ft 307 kts 133°
2026-04-15 11:24 34.78076 -2.21081 9983 ft 312 kts 133°
2026-04-15 11:25 34.76540 -2.19231 9667 ft 311 kts 133°
2026-04-15 11:25 34.75013 -2.17379 9486 ft 306 kts 133°
2026-04-15 11:25 34.73550 -2.15601 9383 ft 290 kts 133°
2026-04-15 11:25 34.72171 -2.13921 9315 ft 270 kts 132°
2026-04-15 11:26 34.70891 -2.12361 9182 ft 250 kts 132°
2026-04-15 11:26 34.69702 -2.10913 9056 ft 233 kts 132°
2026-04-15 11:26 34.68621 -2.09523 8838 ft 230 kts 129°
2026-04-15 11:26 34.67560 -2.08063 8620 ft 232 kts 129°
2026-04-15 11:27 34.66479 -2.06566 8382 ft 237 kts 129°
2026-04-15 11:27 34.65382 -2.05054 8126 ft 239 kts 129°
2026-04-15 11:27 34.64285 -2.03550 7889 ft 236 kts 130°
2026-04-15 11:27 34.63200 -2.02066 7484 ft 238 kts 130°
2026-04-15 11:28 34.62101 -2.00564 7154 ft 237 kts 129°
2026-04-15 11:28 34.61014 -1.99081 6895 ft 231 kts 129°
2026-04-15 11:28 34.60029 -1.97616 6659 ft 223 kts 115°
2026-04-15 11:28 34.59730 -1.95847 6416 ft 210 kts 80°
2026-04-15 11:29 34.60203 -1.94206 6235 ft 206 kts 56°
2026-04-15 11:29 34.61159 -1.92898 5993 ft 209 kts 41°
2026-04-15 11:29 34.62271 -1.91751 5725 ft 212 kts 38°
2026-04-15 11:29 34.63455 -1.90544 5050 ft 230 kts 39°
2026-04-15 11:30 34.64689 -1.89233 4573 ft 237 kts 39°
2026-04-15 11:30 34.65923 -1.87944 4335 ft 228 kts 39°
2026-04-15 11:30 34.67093 -1.86728 4194 ft 215 kts 39°
2026-04-15 11:30 34.68183 -1.85589 4095 ft 204 kts 40°
2026-04-15 11:31 34.69240 -1.84481 3979 ft 193 kts 40°
2026-04-15 11:31 34.70254 -1.83456 3946 ft 192 kts 32°
2026-04-15 11:31 34.71532 -1.83107 3853 ft 190 kts 346°
2026-04-15 11:31 34.72709 -1.83863 3595 ft 194 kts 317°
2026-04-15 11:32 34.73634 -1.85010 3246 ft 191 kts 315°
2026-04-15 11:32 34.74477 -1.86132 3061 ft 174 kts 313°
2026-04-15 11:32 34.75235 -1.87178 2820 ft 158 kts 312°
2026-04-15 11:32 34.75954 -1.88176 2581 ft 154 kts 312°
2026-04-15 11:33 34.76665 -1.89155 2343 ft 156 kts 313°
2026-04-15 11:33 34.77371 -1.90152 2130 ft 154 kts 310°
2026-04-15 11:33 34.78067 -1.91144 1900 ft 154 kts 313°
2026-04-15 11:33 34.78769 -1.92114 1670 ft 152 kts 312°
2026-04-15 11:34 34.79452 -1.93074 1508 ft 145 kts 313°
2026-04-15 11:34 34.80022 -1.93866 1498 ft 96 kts 310°
2026-04-15 11:34 34.80413 -1.94414 1498 ft 73 kts 311°
2026-04-15 11:34 34.80621 -1.94722 1490 ft 27 kts 283°
2026-04-15 11:35 34.80586 -1.94795 1489 ft 10 kts 221°
2026-04-15 11:35 34.87078 -2.43710 11232 ft 354 kts 101°
2026-04-15 11:35 34.85958 -2.38020 11112 ft 361 kts 101°
2026-04-15 11:35 34.85379 -2.35103 10956 ft 349 kts 101°
2026-04-15 11:36 34.81164 -2.24769 10422 ft 314 kts 133°
2026-04-15 11:36 34.69716 -2.10930 9066 ft 233 kts 132°
2026-04-15 11:36 34.61002 -1.99064 6900 ft 231 kts 129°
2026-04-15 11:36 34.65921 -1.87946 4340 ft 228 kts 39°
2026-04-15 11:37 34.74509 -1.86176 3063 ft 174 kts 313°
2026-04-15 11:37 34.78560 -1.91823 1737 ft 153 kts 313°
2026-04-15 11:37 34.79240 -1.92781 1534 ft 150 kts 313°
2026-04-15 11:37 34.87029 -2.43458 11259 ft 354 kts 101°
2026-04-15 11:38 34.86619 -2.41367 11246 ft 366 kts 101°
2026-04-15 11:38 34.86823 -2.42391 11837 ft 319 kts 99°
2026-04-15 11:38 34.86496 -2.40742 11232 ft 366 kts 101°
2026-04-15 11:38 34.85905 -2.37748 11087 ft 360 kts 101°
2026-04-15 11:39 34.85326 -2.34840 10939 ft 347 kts 101°
2026-04-15 11:39 34.84766 -2.32031 10823 ft 334 kts 101°
2026-04-15 11:39 34.84169 -2.29353 10682 ft 327 kts 109°
2026-04-15 11:39 34.82975 -2.27029 10568 ft 324 kts 129°
2026-04-15 11:40 34.81422 -2.25079 10442 ft 316 kts 133°
2026-04-15 11:40 34.79874 -2.23228 10308 ft 309 kts 133°
2026-04-15 11:40 34.78368 -2.21431 10066 ft 311 kts 133°
2026-04-15 11:40 34.76809 -2.19556 9738 ft 311 kts 133°
2026-04-15 11:41 34.75310 -2.17740 9509 ft 308 kts 133°
2026-04-15 11:41 34.73801 -2.15906 9413 ft 292 kts 133°
2026-04-15 11:41 34.72405 -2.14206 9336 ft 273 kts 132°
2026-04-15 11:41 34.71114 -2.12633 9213 ft 254 kts 132°
2026-04-15 11:42 34.69928 -2.11188 9077 ft 236 kts 132°
2026-04-15 11:42 34.68802 -2.09766 8881 ft 229 kts 129°
2026-04-15 11:42 34.67738 -2.08312 8653 ft 232 kts 128°
2026-04-15 11:42 34.67033 -2.07333 8510 ft 235 kts 129°
2026-04-15 11:43 34.65571 -2.05312 8178 ft 239 kts 129°
2026-04-15 11:43 34.64475 -2.03810 7938 ft 236 kts 129°
2026-04-15 11:43 34.63399 -2.02338 7598 ft 236 kts 129°
2026-04-15 11:43 34.62312 -2.00853 7223 ft 236 kts 129°
2026-04-15 11:44 34.61202 -1.99338 6937 ft 232 kts 129°
2026-04-15 11:44 34.60172 -1.97891 6700 ft 224 kts 122°
2026-04-15 11:44 34.59717 -1.96144 6447 ft 213 kts 85°
2026-04-15 11:44 34.60086 -1.94461 6269 ft 207 kts 60°
2026-04-15 11:45 34.60965 -1.93119 6048 ft 208 kts 41°
2026-04-15 11:45 34.61697 -1.92318 5858 ft 209 kts 41°
2026-04-15 11:45 34.62844 -1.91173 5355 ft 222 kts 39°
2026-04-15 11:45 34.64459 -1.89474 4619 ft 238 kts 40°
2026-04-15 11:46 34.65697 -1.88179 4373 ft 231 kts 39°
2026-04-15 11:46 34.66882 -1.86949 4237 ft 217 kts 40°
2026-04-15 11:46 34.67642 -1.86154 4134 ft 208 kts 39°
2026-04-15 11:46 34.68716 -1.85031 3989 ft 201 kts 39°
2026-04-15 11:47 34.69736 -1.83958 3972 ft 189 kts 40°
2026-04-15 11:47 34.70856 -1.83113 3820 ft 195 kts 11°
2026-04-15 11:47 34.72145 -1.83382 3750 ft 194 kts 332°
2026-04-15 11:47 34.73160 -1.84414 3524 ft 189 kts 315°
2026-04-15 11:48 34.74052 -1.85566 3227 ft 178 kts 314°
2026-04-15 11:48 34.74869 -1.86671 2889 ft 167 kts 313°
2026-04-15 11:48 34.75600 -1.87685 2691 ft 157 kts 312°
2026-04-15 11:48 34.76300 -1.88656 2489 ft 153 kts 312°
2026-04-15 11:49 34.77017 -1.89636 2244 ft 155 kts 311°
2026-04-15 11:49 34.77705 -1.90638 2007 ft 154 kts 312°
2026-04-15 11:49 34.78408 -1.91612 1796 ft 153 kts 312°
2026-04-15 11:49 34.79098 -1.92583 1579 ft 150 kts 312°
2026-04-15 11:50 34.79759 -1.93499 1500 ft 127 kts 311°
2026-04-15 11:50 34.80219 -1.94145 1499 ft 85 kts 311°
2026-04-15 11:50 34.80547 -1.94602 1496 ft 51 kts 311°
2026-04-15 11:50 34.80610 -1.94769 1486 ft 8 kts 229°
2026-04-15 11:51 34.80558 -1.94824 1495 ft 11 kts 221°
2026-04-15 11:51 34.78286 -1.91444 1846 ft 159 kts 313°
2026-04-15 11:52 34.78811 -1.92174 1674 ft 152 kts 312°
2026-04-15 11:52 34.79494 -1.93133 1506 ft 143 kts 312°